Weather Roundup
Issued by NWS Chicago, IL

Home | Current Version | Previous Version | Text Only | Print | Product List | Glossary Off
Versions: 1 2 3 4 5 6 7 8 9 10 11 12 13 14 15 16 17 18 19 20 21 22 23 24 25 26 27 28 29 30 31 32 33 34 35 36 37 38 39 40 41 42 43 44 45 46 47 48 49 50

000
NZUS59 KLOT 031521
HRRLOT

CHICAGO AREA WEATHER ROUNDUP
NATIONAL WEATHER SERVICE CHICAGO/ROMEOVILLE IL
1000 AM CDT FRI JUL 03 2015

NOTE: "FAIR" INDICATES FEW OR NO CLOUDS BELOW 12,000 FEET WITH NO
SIGNIFICANT WEATHER AND/OR OBSTRUCTIONS TO VISIBILITY.

* THESE STATIONS ARE NOT UNDER NWS QUALITY CONTROL. THEY ALSO MAY NOT
  REPORT WEATHER SUCH AS PRECIPITATION OR FOG.

ILZ005-006-012>014-019>023-031600-
NORTHEAST ILLINOIS

CITY           SKY/WX    TMP DP  RH WIND       PRES   REMARKS
OHARE          PTSUNNY   68  56  65 E5        29.98S
MIDWAY         PTSUNNY   71  57  61 VRB5      29.97F
AURORA         MOSUNNY   70  56  61 VRB5      29.99S
LANSING*       PTSUNNY   68  52  56 CALM      29.98S
JOLIET*        PTSUNNY   71  58  63 E5        29.98S
WAUKEGAN       MOSUNNY   65  56  72 E5        29.99S
DUPAGE AIRPORT MOSUNNY   68  56  65 E3        29.98F
WHEELING       MOSUNNY   68  56  65 CALM      29.99F
KANKAKEE*      PTSUNNY   69  58  68 NE7       29.97S
MORRIS*        PTSUNNY   70  56  62 CALM      29.96F
LEWIS AIRPORT* PTSUNNY   70  54  57 E3        29.98S
NORTHERLY IS     N/A     64  58  80 N5          N/A
$$

WIZ051-052-058>065-066-070>072-031600-
SOUTHEAST WISCONSIN

CITY           SKY/WX    TMP DP  RH WIND       PRES   REMARKS
MILWAUKEE      PTSUNNY   65  53  65 NE3       30.00S
KENOSHA*       MOSUNNY   67  56  67 E5        30.00S
RACINE*        PTSUNNY   64  53  67 NE5       30.02R
BURLINGTON     MOSUNNY   65  55  69 CALM      30.00R
WAUKESHA       SUNNY     66  52  59 CALM      30.00F
WEST BEND      SUNNY     68  52  56 CALM      30.00S
$$

INZ001>003-010>013-019-020-031600-
NORTHWEST INDIANA

CITY           SKY/WX    TMP DP  RH WIND       PRES   REMARKS
GARY*          NOT AVBL
MICHIGAN CITY* NOT AVBL
RENSSELAER*    NOT AVBL
VALPARAISO     PTSUNNY   70  56  61 NE8       29.98S
$$

LMZ740>746-031600-
SOUTHERN LAKE MICHIGAN

STATION/POSITION TIME  SKY/WX   TEMP WIND        PRES    VSBY
                                AIR  DIR/SP/G
                 (UTC)          (F)  (DEG/KT/KT) (MB)    (MI)
HARRISON CRIB    1500            61   20/  5/  6   N/A
BURNHAM HARBOR   1500            64   30/  3/  6   N/A
CALUMET HARBOR   1400            64   60/  2/  2   N/A
BURNS HARBOR     1400            67  120/  7/ 14 1015.6S
MICHIGAN CITY    1500            68   50/  2/  6   N/A
$$

ABBREVIATIONS USED IN REMARKS
   TC - TEMPERATURE IN CELSIUS
  WCI - WIND CHILL INDEX
   HX - HEAT INDEX
  VSB - VISIBILITY
$$


USA.gov is the U.S. government's official web portal to all federal, state and local government web resources and services.